Home > Weather > Mannheim > Past weeks

Flag for Germany Weather for the Past 2 Weeks in Mannheim, Baden-Württemberg, Germany

Now
57 °F

Clear.


Feels Like: 56 °F
Forecast: 53 / 75 °F
Wind: 7 mph from North

Location: Frankfurt-M-Flughafen Airport

Current Time: May 7, 2016 at 2:43:16 AM

Latest Report: May 7, 2016 at 2:20 AM


Visibility: 10 mi

Pressure: 29.92 "Hg

Humidity: 63%

Dew Point: 45 °F

Location of MannheimLocation

Historic Weather in Mannheim — Graph

°F

Mannheim Temperature Yesterday

Maximum temperature yesterday: 77 °F (at 5:20 PM)
Minimum temperature yesterday: 46 °F (at 5:20 AM)
Average temperature yesterday: 62 °F

High & Low Weather Summary for the Past Weeks

 TemperatureHumidityPressure
High77 °F (May 6, 5:20 PM)93% (Apr 24, 2:50 AM)30.39 "Hg (Apr 24, 2:50 AM)
Low30 °F (Apr 24, 4:50 AM)23% (May 4, 5:50 PM)29.56 "Hg (Apr 26, 12:20 AM)
Average49 °F62%30.01 "Hg
* Reported Apr 22 1:20 AM — May 7 1:20 AM, Mannheim, Weather by CustomWeather, © 2016

Note: Actual official high and low records may vary slightly from our data, if they occured in-between our weather recording intervals... More about our weather records

Advertising

Mannheim Weather History for the Previous 24 Hours

Scroll right to see more
 ConditionsComfort  
Time TempWeatherWind HumidityBarometerVisibility
1:20 AM
Sat, May 7
59 °FClear.8 mph59%29.92 "Hg10 mi
12:50 AM59 °FPassing clouds.5 mph59%29.92 "HgN/A
12:20 AM59 °FClear.5 mph59%29.89 "Hg10 mi
11:50 PM
Fri, May 6
59 °FClear.5 mph59%29.89 "Hg10 mi
11:20 PM59 °FClear.5 mph59%29.89 "Hg10 mi
10:50 PM59 °FClear.5 mph59%29.89 "Hg10 mi
10:20 PM63 °FClear.5 mph52%29.89 "Hg10 mi
9:50 PM66 °FSunny.6 mph46%29.89 "Hg10 mi
9:20 PM68 °FSunny.7 mph40%29.89 "Hg10 mi
8:50 PM70 °FPassing clouds.7 mph38%29.89 "HgN/A
8:20 PM72 °FSunny.8 mph36%29.89 "Hg10 mi
7:50 PM73 °FSunny.9 mph33%29.89 "Hg10 mi
7:20 PM75 °FPassing clouds.10 mph31%29.89 "HgN/A
6:50 PM75 °FPassing clouds.8 mph34%29.89 "HgN/A
6:20 PM77 °FPassing clouds.8 mph32%29.92 "HgN/A
5:50 PM75 °FPassing clouds.7 mph31%29.92 "HgN/A
5:20 PM77 °FPassing clouds.9 mph32%29.92 "HgN/A
4:50 PM75 °FPassing clouds.6 mph27%29.92 "HgN/A
4:20 PM75 °FSunny.6 mph29%29.95 "Hg10 mi
3:50 PM75 °FPassing clouds.6 mph29%29.95 "HgN/A
3:20 PM75 °FSunny.6 mph34%29.95 "Hg10 mi
2:50 PM75 °FSunny.6 mph34%29.95 "Hg10 mi
2:20 PM73 °FSunny.5 mph36%29.98 "Hg10 mi
1:50 PM72 °FSunny.5 mph41%29.98 "Hg10 mi
1:20 PM72 °FSunny.3 mph38%30.01 "Hg10 mi
12:50 PM70 °FPassing clouds.8 mph40%30.01 "HgN/A
12:20 PM68 °FPassing clouds.5 mph46%30.01 "HgN/A
11:50 AM66 °FPassing clouds.5 mph49%30.01 "HgN/A
11:20 AM64 °FSunny.6 mph52%30.04 "Hg10 mi
10:50 AM63 °FPassing clouds.5 mph59%30.04 "HgN/A
10:20 AM63 °FPassing clouds.5 mph56%30.04 "HgN/A
9:50 AM61 °FSunny.3 mph59%30.04 "Hg10 mi
9:20 AM59 °FPassing clouds.5 mph63%30.04 "HgN/A
8:50 AM57 °FSunny.7 mph67%30.04 "Hg10 mi
8:20 AM57 °FSunny.8 mph67%30.04 "Hg10 mi
7:50 AM54 °FSunny.8 mph72%30.04 "Hg10 mi
7:20 AM54 °FSunny.9 mph72%30.04 "Hg10 mi
6:50 AM52 °FClear.9 mph77%30.04 "Hg10 mi
6:20 AM48 °FClear.10 mph82%30.04 "Hg10 mi
5:50 AM48 °FPassing clouds.6 mph82%30.04 "HgN/A
5:20 AM46 °FPassing clouds.6 mph82%30.04 "HgN/A
4:50 AM48 °FClear.5 mph82%30.04 "Hg10 mi
4:20 AM50 °FClear.3 mph76%30.07 "Hg10 mi
3:50 AM50 °FPassing clouds.3 mph76%30.07 "HgN/A
3:20 AM48 °FClear.5 mph82%30.07 "Hg10 mi
2:50 AM50 °FPassing clouds.5 mph76%30.07 "HgN/A
2:20 AM48 °FPassing clouds.3 mph82%30.07 "HgN/A
Weather by CustomWeather, © 2016

See weather overviewHow to use our weather pages